User: anonymous   Login
Location: 相模原市立博物館
(35.5593°N, 139.3931°E)
Time: 12:00:34
(UTC+09:00)
Language:

Envisat - Orbit

View from above orbital plane
View from above orbital plane
View from above satellite
View from above satellite

Ground track
Ground track

The orbit data is extracted from the following two-line orbital elements,

1 27386U 02009A   21334.87711097  .00000070  00000-0  36597-4 0  9991
2 27386  98.1637 320.5532 0001317  89.5767 309.1363 14.38057555 34922
Epoch (UTC): 30 November 2021 21:03:02
Eccentricity: 0.0001317
inclination: 98.1637°
perigee height: 764 km
apogee height: 766 km
right ascension of ascending node: 320.5532°
argument of perigee: 89.5767°
revolutions per day: 14.38057555
mean anomaly at epoch: 309.1363°
orbit number at epoch: 3492

The dashed part of the orbit path shows where the satellite is in the earth's shadow,  

DLR